Tracking 25953 objects as of 15-Aug-2022
HD Live streaming from Space Station
objects crossing your sky now

ELEKTRON 3

Track ELEKTRON 3 now!
10-day predictions
ELEKTRON 3 is classified as:


NORAD ID: 829
Int'l Code: 1964-038A
Perigee: 418.3 km
Apogee: 6,154.8 km
Inclination: 60.8 °
Period: 157.4 minutes
Semi major axis: 9657 km
RCS: 2.8255 m2 (large)
Launch date: July 10, 1964
Source: Commonwealth of Independent States (former USSR) (CIS)
Launch site: TYURATAM MISSILE AND SPACE COMPLEX (TTMTR)
aabbcc
Your satellite tracking list
Your tracking list is empty




NASA's NSSDC Master Catalog

Two Line Element Set (TLE):
1 00829U 64038A   22226.73858866  .00000374  00000-0  12009-3 0  9994
2 00829  60.8240 333.7680 2969974 335.1681  13.0871  9.14754872886654
Source of the keplerian elements: AFSPC